SCP
0 0 0 0 0 0 0 0 0 0 0 0 0 0 0 0 1 1 1 1 1 1 1 2 2 1 1 2 2 2 2 2 2 2 2 1 1 1 1 1 0 0 0 0 0 0 0 0 0
0 0 0 0 0 0 0 0 0 0 0 0 0 0 0 1 1 1 1 1 1 1 1 2 2 2 2 2 2 2 2 2 2 2 2 1 1 1 1 1 1 0 0 0 0 0 0 0 0
0 0 0 0 0 0 0 0 0 0 0 0 0 1 1 1 1 1 1 1 2 2 2 2 2 2 2 2 2 2 2 2 2 2 2 2 1 1 1 1 1 1 1 0 0 0 0 0 0
0 0 0 0 0 0 0 0 0 0 0 0 1 2 2 2 2 2 2 2 2 2 2 2 2 2 2 2 2 2 2 2 2 2 2 2 2 1 1 1 1 1 1 1 1 1 1 0 0
0 0 1 0 0 0 0 0 0 0 0 1 2 3 4 3 2 3 3 2 2 2 2 3 3 2 2 2 2 2 2 2 2 2 2 2 2 2 1 1 1 1 1 1 1 1 1 1 1
0 0 0 0 0 0 0 0 0 0 0 1 3 5 5 4 3 4 4 3 2 3 3 3 3 3 2 2 2 2 2 2 2 2 2 2 2 2 1 1 1 1 1 1 1 1 1 1 1
0 0 0 0 0 0 0 0 0 0 0 2 4 6 6 5 4 4 4 3 3 3 3 3 3 3 2 2 2 2 2 2 2 2 2 2 2 2 2 2 1 1 1 1 1 1 1 1 1
0 0 0 0 0 0 0 0 0 0 0 2 4 6 7 5 4 5 5 4 3 3 3 3 3 3 2 2 2 2 2 2 2 2 2 2 2 2 2 2 2 1 1 1 1 1 1 1 1
0 0 0 0 0 0 0 0 0 0 0 1 4 6 7 5 4 6 6 5 4 3 3 3 3 3 2 2 2 2 2 2 2 2 2 2 2 2 2 2 2 2 1 1 1 1 1 1 0
0 0 0 0 0 0 0 1 1 1 1 2 4 5 6 5 4 5 6 5 4 3 3 3 3 3 3 2 2 2 2 2 2 2 2 2 2 2 2 2 2 2 1 1 1 1 1 1 1
0 0 0 0 0 0 0 1 1 1 1 2 3 4 5 4 4 4 5 5 5 4 3 3 4 3 3 2 2 2 2 2 2 2 2 2 2 2 2 2 2 2 1 1 1 1 1 1 1
0 0 0 0 0 0 0 1 1 1 1 2 3 4 4 3 3 3 4 5 5 4 4 4 4 4 3 2 2 2 2 2 3 3 2 2 2 2 2 2 2 1 1 1 1 1 1 1 1
0 0 0 0 0 0 0 0 1 2 2 3 4 4 4 3 3 3 4 5 5 5 4 4 4 4 4 3 2 2 2 2 2 3 2 2 2 3 3 2 2 1 1 1 1 0 1 1 1
0 0 0 0 0 0 0 0 1 2 3 4 5 4 3 3 3 3 3 4 5 5 5 4 4 4 4 3 2 2 2 2 2 3 2 2 2 3 3 3 2 1 1 1 1 0 0 0 1
0 0 0 0 0 0 0 1 2 3 3 4 4 3 3 3 3 3 3 3 4 4 5 4 4 4 4 3 2 2 2 2 2 2 2 2 2 3 3 3 2 1 1 1 1 1 0 0 0
0 0 0 0 0 0 1 2 3 3 3 3 3 3 2 2 3 3 3 3 3 3 4 4 4 4 4 4 3 2 2 1 2 2 2 2 1 2 2 2 2 2 1 1 1 1 0 0 0
0 1 0 0 0 0 1 2 3 3 2 2 2 3 3 3 3 3 3 3 2 2 2 3 4 4 4 3 3 2 1 1 1 1 2 2 1 1 1 1 2 2 1 1 1 1 1 0 0
0 0 0 0 0 0 1 2 3 3 2 2 2 3 3 3 3 3 3 3 2 2 2 2 3 3 3 3 3 2 1 1 1 1 1 1 1 1 0 1 1 1 1 1 1 1 1 0 0
0 0 0 0 0 0 1 2 3 3 2 2 2 3 3 3 3 3 3 3 2 2 2 1 2 3 3 3 3 2 2 1 1 1 1 1 1 1 0 0 1 1 1 1 1 1 1 1 0
0 0 0 0 0 0 1 1 2 2 2 1 1 2 2 3 3 4 3 3 3 2 1 1 1 2 2 3 3 3 2 1 1 1 1 1 1 1 0 0 0 0 1 1 1 1 1 1 1
0 0 0 0 1 1 1 1 1 1 1 1 1 1 1 2 3 3 3 3 3 2 1 1 0 1 1 2 3 3 2 2 2 2 2 1 1 1 0 0 0 0 0 1 1 1 1 1 1
0 0 0 0 1 1 1 1 1 1 1 0 0 1 1 1 2 3 3 3 2 2 1 0 0 0 1 2 2 3 2 2 2 2 2 1 1 1 0 0 0 0 0 0 0 0 1 1 1
0 0 0 0 1 1 1 1 1 1 0 0 0 0 0 1 2 2 2 2 2 1 1 0 0 0 0 1 2 2 2 2 3 3 2 1 1 0 0 0 0 0 0 0 0 0 0 1 1
0 0 0 0 0 0 0 0 0 0 0 0 0 0 0 0 1 1 2 2 2 1 1 0 0 0 0 1 2 2 2 2 2 3 2 2 1 0 0 0 0 0 0 0 0 0 0 0 1
0 0 0 0 0 0 0 0 0 0 0 0 0 0 0 0 0 1 1 1 1 1 1 0 0 0 0 0 1 2 2 2 2 3 2 2 1 1 1 0 0 0 0 0 0 0 0 0 0
0 0 0 0 0 0 0 0 0 0 0 0 0 0 0 0 0 1 1 1 0 0 0 0 0 0 0 0 1 2 2 2 2 2 2 2 1 1 1 1 0 0 0 0 0 0 0 0 0
0 0 0 0 0 0 0 0 0 0 0 0 0 0 0 0 0 0 1 0 0 0 0 0 0 0 0 0 1 1 2 2 1 2 2 2 1 1 1 1 0 0 0 0 0 0 0 0 0
0 0 0 0 0 0 0 0 0 0 0 0 0 0 0 0 0 0 0 0 0 0 0 0 0 0 0 0 0 1 1 1 1 1 1 1 1 1 1 1 0 0 0 0 0 0 0 0 0
0 0 0 0 0 0 0 0 0 0 0 0 0 0 0 0 0 0 0 0 0 0 0 0 0 0 0 0 0 1 1 1 1 1 1 1 1 1 1 0 0 0 0 0 0 0 0 0 0
0 0 0 0 0 0 0 0 0 0 0 0 0 0 0 0 0 0 0 0 0 0 0 0 0 0 0 0 0 1 1 1 1 1 1 1 1 1 0 0 0 0 0 0 0 0 0 0 0
Wind_Speed
11 7 2 4 7 5 1 3 2 0 1 0 2 6 7 5 4 4 0 2 4 2 1 2 4 6 8 9 10 10 9 9 9 10 10 11 11 11 11 12 11 11 12 12 12 13 13 13 13
5 3 4 5 5 2 3 3 1 1 2 2 4 5 7 6 4 4 3 2 3 3 3 3 5 6 8 8 9 9 9 9 9 10 10 10 10 10 11 11 11 11 11 12 12 12 12 12 12
5 1 4 4 3 6 4 3 4 1 2 2 4 5 6 4 3 2 1 2 4 4 4 3 7 7 8 8 8 9 9 9 9 9 9 10 10 9 10 10 10 11 11 11 11 11 11 11 11
3 4 5 4 4 4 3 2 3 1 3 4 4 6 5 4 2 2 3 4 5 5 5 5 8 8 8 7 8 8 8 9 9 9 9 9 9 9 9 10 10 10 10 10 11 11 11 10 10
4 4 3 1 4 2 1 1 1 1 2 3 4 6 4 5 4 5 5 5 5 5 5 5 9 9 9 8 7 8 8 8 8 8 8 9 9 9 10 9 9 10 10 10 10 10 10 10 10
4 4 3 4 4 2 1 2 2 2 2 3 4 5 3 3 5 4 4 5 5 5 4 4 7 8 8 8 8 7 8 7 7 8 8 8 8 9 9 9 9 9 9 9 9 9 10 10 10
4 3 3 3 3 2 1 1 2 1 2 2 2 5 3 4 4 3 4 5 5 5 5 5 4 5 7 8 8 8 7 7 7 7 7 8 7 8 8 8 8 8 8 8 8 8 9 9 9
3 3 1 1 3 2 1 1 1 2 2 1 3 6 2 1 2 4 5 5 5 5 5 5 5 5 4 4 7 8 8 7 7 7 7 7 6 6 7 7 7 7 8 8 8 8 8 8 8
3 3 2 1 2 2 1 1 2 2 4 4 4 3 3 4 4 6 6 6 5 6 5 5 5 5 4 3 5 5 6 6 5 5 6 5 3 3 3 4 6 6 7 7 7 7 8 7 7
3 3 3 0 1 1 2 2 1 2 3 3 5 5 5 6 6 7 5 4 4 4 4 4 4 4 4 3 3 2 2 3 3 2 3 2 2 2 3 4 5 5 5 6 6 6 6 5 3
2 3 1 1 2 2 2 2 2 3 1 2 4 5 4 6 6 5 4 3 2 2 3 4 4 3 3 3 2 2 2 2 2 2 2 2 2 2 2 1 2 2 3 2 3 3 2 2 2
2 1 1 1 2 2 1 1 2 2 2 3 6 7 6 6 5 4 3 2 2 2 3 3 3 3 3 2 2 1 1 1 1 1 1 2 1 1 1 1 1 1 1 1 1 1 2 2 2
1 0 2 2 3 3 2 1 1 0 1 4 7 8 6 5 4 4 4 3 3 2 3 3 3 3 3 2 2 2 1 1 1 1 0 1 1 1 1 1 1 1 1 1 1 1 1 1 1
1 1 0 1 1 1 1 1 1 2 2 5 7 6 5 5 5 5 5 4 3 3 3 2 2 3 3 2 2 1 1 1 1 1 1 1 1 2 1 1 1 1 1 1 1 1 1 0 1
1 2 2 1 1 1 1 2 2 3 3 6 6 6 6 5 5 5 4 3 3 3 3 3 2 2 2 2 3 2 2 2 1 1 1 1 1 2 2 2 2 1 2 2 1 1 1 1 1
2 2 1 3 1 1 2 4 3 3 6 5 5 5 5 4 4 4 4 4 4 3 4 4 3 3 3 2 2 2 2 2 2 1 1 2 1 1 2 2 2 2 2 2 2 2 1 1 1
2 1 3 3 1 1 2 4 2 2 5 6 5 4 4 4 4 4 4 4 4 3 3 4 3 3 3 3 2 2 2 2 2 2 1 2 2 1 1 2 2 2 2 2 2 1 1 1 1
3 3 3 3 1 1 3 4 2 1 5 6 5 4 4 3 3 3 4 4 4 4 4 4 4 3 3 2 2 2 2 2 2 2 2 3 2 1 1 2 2 2 2 2 2 2 1 1 1
3 3 3 3 1 2 4 4 3 2 4 5 4 3 3 2 2 3 3 4 5 5 5 5 4 4 3 2 2 2 2 3 3 2 3 3 2 1 1 1 2 3 3 3 3 2 2 1 1
1 2 3 3 2 2 2 3 1 3 3 4 5 3 2 2 3 3 4 4 4 4 4 5 5 4 3 2 2 2 3 2 3 3 3 3 3 2 2 2 2 3 3 3 3 3 2 2 2
2 2 3 4 4 1 1 2 0 2 3 4 3 3 2 1 1 2 3 4 3 4 4 4 5 5 4 3 2 2 3 3 3 3 3 4 3 2 2 2 2 2 3 4 4 4 4 3 2
3 2 3 4 1 2 1 2 3 1 1 2 2 2 1 1 1 2 3 4 4 4 4 4 4 5 4 3 2 2 2 3 4 4 3 4 4 3 2 2 2 3 2 4 4 3 3 4 4
4 4 4 3 2 1 1 2 5 1 1 1 0 1 1 1 1 2 3 3 4 4 4 4 4 4 4 3 2 2 2 3 3 4 4 4 4 3 2 2 2 2 2 3 4 3 3 3 4
3 2 1 2 2 1 3 3 5 2 3 2 1 1 1 2 2 2 2 3 3 4 3 4 4 4 5 4 3 2 3 4 4 4 4 3 3 3 2 2 2 3 3 3 3 4 5 4 4
4 3 3 3 2 4 1 2 5 2 1 2 2 1 2 2 3 3 3 4 5 5 4 4 4 5 5 4 3 3 3 4 4 4 4 4 3 3 3 3 3 3 3 3 3 4 5 5 5
1 2 3 2 3 4 3 3 4 2 0 1 1 0 2 2 3 3 3 3 4 5 4 4 4 5 5 5 4 4 3 3 3 4 3 4 4 4 3 3 3 3 3 3 3 3 5 5 5
1 1 1 3 1 2 4 4 4 0 1 2 2 2 2 3 4 4 4 4 4 4 4 4 4 5 5 5 5 4 3 3 3 4 4 3 3 4 3 3 3 3 3 3 3 3 4 4 5
1 2 3 3 1 3 4 4 4 3 2 2 2 3 4 4 5 5 4 4 4 3 4 4 4 4 5 5 4 5 4 4 4 4 4 4 4 4 4 4 3 3 3 3 3 3 3 4 4
2 2 2 2 2 3 3 6 3 4 3 2 3 4 4 5 5 5 4 4 4 4 4 4 5 5 5 6 5 5 5 4 4 4 4 4 4 4 4 4 3 3 3 3 2 3 3 4 3
2 3 3 3 3 3 3 7 2 2 2 1 3 4 4 5 5 5 5 4 4 5 5 5 5 5 5 5 6 5 5 4 4 4 5 4 4 4 4 4 4 4 3 3 3 3 3 4 4
Wind_Direction
333 330 37 55 60 59 213 258 250 10 73 41 69 90 100 86 90 123 29 45 41 45 45 105 97 94 96 96 97 94 94 96 97 99 100 101 102 101 102 102 101 99 97 97 95 94 94 92 91
329 338 50 62 97 135 247 243 200 222 186 119 68 72 77 67 54 80 39 37 70 58 46 68 82 91 91 95 98 97 95 97 97 98 98 98 101 103 104 104 102 100 99 100 99 97 95 93 92
329 26 78 83 130 183 197 214 195 216 16 60 75 54 76 68 52 50 18 90 71 55 38 44 67 79 84 87 96 100 99 96 96 96 97 97 98 100 106 106 103 101 100 102 102 99 96 95 94
36 44 58 89 188 216 185 217 198 201 17 30 94 75 69 41 26 33 95 92 80 56 40 40 55 63 74 79 86 96 101 100 97 98 97 99 99 99 101 104 103 103 104 103 104 102 97 93 92
59 78 86 171 216 218 239 290 119 92 49 21 81 98 74 8 49 86 92 89 86 62 51 50 52 55 58 64 78 87 93 100 101 100 101 101 100 99 98 99 101 104 106 106 105 106 101 95 94
58 77 121 203 207 202 276 332 79 69 53 29 67 100 101 34 55 80 84 80 83 74 57 60 51 48 50 53 57 76 84 85 94 98 98 101 100 99 100 99 99 105 109 109 107 103 101 97 97
102 113 170 181 177 182 232 339 77 112 63 24 72 98 114 25 42 71 83 79 74 71 58 47 47 47 48 47 49 51 71 79 83 89 92 91 91 94 98 98 98 99 106 109 105 101 96 98 98
115 107 149 187 170 194 250 93 76 93 106 32 73 110 137 322 58 71 78 75 69 63 52 42 35 34 33 41 48 44 51 68 76 80 84 87 89 92 94 92 96 98 100 104 104 99 94 91 94
73 86 188 205 173 183 98 103 14 51 85 59 60 98 135 125 89 76 68 56 50 48 40 38 31 26 23 31 42 45 49 56 74 84 80 83 85 90 94 87 89 98 100 100 104 101 94 83 83
76 153 200 160 121 115 53 79 80 67 72 62 51 58 88 100 96 91 85 66 46 36 29 29 25 20 19 30 36 38 42 43 45 67 79 77 78 85 94 98 97 95 95 97 99 103 94 80 70
91 162 188 4 37 68 62 46 29 116 99 137 129 119 108 101 94 91 89 89 79 56 30 21 17 15 19 18 22 25 20 21 27 50 76 81 76 77 80 86 94 93 87 79 85 85 75 80 84
95 11 336 319 355 15 31 69 41 78 161 142 137 131 114 105 97 91 88 77 64 50 25 17 18 14 15 12 10 21 9 2 4 356 89 108 104 94 113 111 115 107 97 79 82 78 85 97 101
113 298 348 6 36 39 44 59 111 70 147 122 112 107 109 104 94 84 78 66 57 43 12 6 14 22 12 6 357 3 340 349 338 324 276 139 148 158 166 159 165 145 133 127 113 114 90 110 124
154 130 334 328 354 339 107 309 105 229 147 116 111 107 102 94 81 71 61 46 37 24 2 357 11 18 7 357 337 334 331 317 310 291 295 212 182 179 180 177 179 169 157 160 163 156 133 141 134
92 71 350 290 278 226 115 323 239 217 153 126 119 110 93 80 73 67 55 45 31 20 6 2 14 15 0 348 333 339 320 306 291 286 284 257 205 193 187 192 192 192 176 164 153 146 117 135 117
54 64 295 274 243 238 156 246 247 200 146 140 132 119 100 80 67 56 42 35 29 26 12 4 8 360 350 344 333 325 315 319 295 290 290 281 233 204 189 200 203 196 180 168 165 163 143 158 142
35 237 247 273 227 195 189 237 249 196 151 147 138 126 111 83 54 41 30 24 26 25 12 3 4 359 349 343 329 326 322 322 314 306 309 303 263 221 196 210 208 191 182 180 184 178 170 175 174
217 231 248 246 232 215 229 243 277 216 149 142 136 130 118 97 56 33 25 19 23 20 15 5 5 359 355 350 342 350 348 336 330 316 313 313 281 250 217 211 206 192 186 191 188 180 180 177 174
216 225 259 264 253 240 233 252 265 172 131 127 123 120 112 98 45 33 30 24 24 20 16 3 1 355 357 352 344 338 327 319 317 313 307 310 299 264 235 218 210 206 199 198 188 176 175 174 147
259 265 283 300 295 262 239 277 279 127 142 140 133 122 107 63 31 22 21 23 18 14 9 358 358 346 344 330 318 309 306 299 302 304 312 307 295 274 254 221 211 216 205 197 195 174 171 185 172
290 218 244 277 307 298 173 300 321 94 94 92 99 110 106 104 37 6 9 7 3 1 353 347 346 341 338 341 344 341 338 328 321 319 316 314 302 279 267 252 231 220 207 198 201 192 179 185 204
268 245 261 276 272 273 174 264 255 185 102 90 75 67 64 33 16 1 352 350 344 337 338 341 341 339 341 341 336 323 320 309 305 300 300 309 312 295 289 276 252 231 222 208 202 200 196 181 195
258 283 264 251 198 298 302 198 269 154 195 239 276 2 334 339 348 341 335 328 329 332 340 339 342 342 343 341 320 313 317 302 307 305 302 306 316 305 296 278 259 243 235 219 216 210 207 197 197
299 338 8 46 90 265 233 189 260 216 215 220 247 292 311 325 324 332 335 338 333 338 346 343 343 340 343 337 327 318 310 306 310 309 306 311 310 294 297 294 274 255 244 230 230 219 216 214 209
21 49 22 3 9 250 254 188 250 267 244 195 193 248 302 321 320 330 339 339 336 338 338 338 341 337 338 336 328 313 302 295 295 300 301 304 301 297 292 292 272 266 260 244 235 223 219 215 210
342 107 144 219 245 289 336 237 257 307 54 113 112 3 331 326 314 312 317 322 324 330 330 332 336 331 331 331 321 311 301 290 294 297 296 291 289 291 289 278 271 272 274 271 246 234 226 215 210
47 66 154 134 338 288 279 288 300 359 31 26 15 4 327 316 315 308 311 319 323 329 326 319 325 325 325 324 318 309 303 298 298 298 296 286 292 297 291 281 275 277 273 268 256 242 235 220 212
68 132 83 104 180 279 292 279 262 256 272 310 323 316 313 314 314 312 311 316 319 322 319 317 321 317 319 318 312 312 305 301 298 295 294 293 296 295 288 285 281 276 273 268 259 258 250 232 222
31 59 89 125 167 189 270 271 234 208 220 250 285 299 298 299 303 306 311 316 321 326 327 324 324 324 320 317 314 309 308 308 306 297 292 290 297 291 280 278 274 270 270 269 259 258 260 247 237
166 174 157 165 241 203 216 269 273 193 207 243 282 306 311 305 303 308 313 323 330 330 328 324 319 316 314 315 315 308 309 312 310 303 297 294 294 290 281 277 268 267 272 269 259 257 256 254 242